ARG1526 SABE-SACO

Flight info

Callsign ARG1526
Flight time N/A
Altitude 32000
Route ATOVO4B ATOVO UW5 ASISA ASISA1Q
Aircraft B38M/M-MSDFGHILORVW/SB1

Departure

Time 2026-04-30 19:11
Airport Aeroparque Jorge Newbery (SABE)

Arrival

Time N/A
Airport Ingeniero Aeronáutico Ambrosio L.V. Taravella International Airport (SACO)
Time Latitude Longitude Altitude Speed Heading
2026-04-30 18:52 -34.55783 -58.41291 28 ft 0 kts 36°
2026-04-30 19:02 -34.55816 -58.41313 28 ft 4 kts 348°
2026-04-30 19:02 -34.55840 -58.41274 28 ft 1 kts 301°
2026-04-30 19:03 -34.55840 -58.41273 28 ft 0 kts 301°
2026-04-30 19:05 -34.55834 -58.41287 28 ft 3 kts 301°
2026-04-30 19:05 -34.55786 -58.41377 28 ft 9 kts 305°
2026-04-30 19:06 -34.55723 -58.41504 28 ft 5 kts 291°
2026-04-30 19:06 -34.55732 -58.41554 28 ft 8 kts 227°
2026-04-30 19:06 -34.55763 -58.41688 28 ft 12 kts 294°
2026-04-30 19:07 -34.55682 -58.41859 28 ft 12 kts 303°
2026-04-30 19:07 -34.55629 -58.41952 28 ft 15 kts 305°
2026-04-30 19:08 -34.55522 -58.42130 28 ft 15 kts 307°
2026-04-30 19:08 -34.55386 -58.42348 28 ft 11 kts 307°
2026-04-30 19:08 -34.55360 -58.42445 28 ft 14 kts 271°
2026-04-30 19:09 -34.55413 -58.42488 28 ft 3 kts 127°
2026-04-30 19:09 -34.55431 -58.42465 28 ft 0 kts 124°
2026-04-30 19:10 -34.55451 -58.42426 29 ft 31 kts 123°
2026-04-30 19:11 -34.55745 -58.41898 27 ft 117 kts 125°
2026-04-30 19:11 -34.57020 -58.39590 845 ft 191 kts 120°
2026-04-30 19:11 -34.57723 -58.38137 1731 ft 216 kts 110°
2026-04-30 19:12 -34.57893 -58.36252 2223 ft 237 kts 74°
2026-04-30 19:12 -34.57039 -58.34590 2540 ft 237 kts 34°
2026-04-30 19:12 -34.55519 -58.33843 3002 ft 237 kts 10°
2026-04-30 19:13 -34.52303 -58.32455 4036 ft 256 kts 33°
2026-04-30 19:13 -34.49158 -58.30473 4497 ft 255 kts 359°
2026-04-30 19:13 -34.47421 -58.30859 4652 ft 256 kts 337°
2026-04-30 19:14 -34.45927 -58.32034 4806 ft 258 kts 315°
2026-04-30 19:14 -34.44921 -58.33837 4944 ft 261 kts 299°
2026-04-30 19:14 -34.44052 -58.35771 5027 ft 263 kts 301°
2026-04-30 19:14 -34.43160 -58.37694 5927 ft 260 kts 301°
2026-04-30 19:15 -34.42570 -58.38964 6723 ft 262 kts 301°
2026-04-30 19:15 -34.40441 -58.43475 9412 ft 267 kts 300°
2026-04-30 19:15 -34.39510 -58.45436 10496 ft 270 kts 300°
2026-04-30 19:16 -34.38873 -58.46774 11152 ft 273 kts 300°
2026-04-30 19:16 -34.37604 -58.49434 12466 ft 277 kts 299°
2026-04-30 19:16 -34.35657 -58.53518 14349 ft 284 kts 299°
2026-04-30 19:17 -34.35001 -58.54891 14934 ft 285 kts 298°
2026-04-30 19:17 -34.33012 -58.59059 16674 ft 288 kts 298°
2026-04-30 19:17 -34.32003 -58.61170 17528 ft 291 kts 298°
2026-04-30 19:18 -34.30299 -58.64736 18842 ft 294 kts 298°
2026-04-30 19:18 -34.28937 -58.67585 19794 ft 296 kts 298°
2026-04-30 19:18 -34.27901 -58.69750 20499 ft 298 kts 298°
2026-04-30 19:19 -34.26859 -58.71927 21207 ft 300 kts 298°
2026-04-30 19:19 -34.25813 -58.74110 21886 ft 301 kts 298°
2026-04-30 19:19 -34.23699 -58.78523 23218 ft 305 kts 297°
2026-04-30 19:20 -34.22631 -58.80751 23806 ft 308 kts 297°
2026-04-30 19:20 -34.21555 -58.82993 24332 ft 310 kts 297°
2026-04-30 19:20 -34.19388 -58.87508 25326 ft 314 kts 297°
2026-04-30 19:21 -34.18286 -58.89802 25793 ft 317 kts 298°
2026-04-30 19:21 -34.16046 -58.94459 26697 ft 323 kts 298°
2026-04-30 19:22 -34.13765 -58.99197 27616 ft 328 kts 298°
2026-04-30 19:22 -34.10288 -59.06410 28975 ft 335 kts 298°
2026-04-30 19:23 -34.06724 -59.13788 30216 ft 342 kts 298°
2026-04-30 19:24 -34.03793 -59.18374 30914 ft 348 kts 306°
2026-04-30 19:24 -34.02240 -59.20633 31224 ft 351 kts 307°
2026-04-30 19:24 -33.99092 -59.25181 31897 ft 356 kts 307°
2026-04-30 19:25 -33.94185 -59.32245 31987 ft 380 kts 307°
2026-04-30 19:26 -33.87289 -59.42146 31954 ft 386 kts 307°
2026-04-30 19:27 -33.82124 -59.49546 31964 ft 387 kts 307°
2026-04-30 19:28 -33.76898 -59.57016 31961 ft 397 kts 307°
2026-04-30 19:28 -33.73268 -59.62197 31955 ft 412 kts 308°
2026-04-30 19:29 -33.69517 -59.67536 31954 ft 421 kts 308°
2026-04-30 19:30 -33.61968 -59.78329 31949 ft 420 kts 304°
2026-04-30 19:31 -33.55360 -59.89834 31949 ft 420 kts 303°
2026-04-30 19:31 -33.50296 -59.98456 31950 ft 421 kts 304°
2026-04-30 19:32 -33.46916 -60.04198 31951 ft 421 kts 304°
2026-04-30 19:32 -33.43537 -60.09929 31943 ft 421 kts 304°
2026-04-30 19:33 -33.40172 -60.15629 31946 ft 421 kts 304°
2026-04-30 19:33 -33.36786 -60.21355 31940 ft 422 kts 304°
2026-04-30 19:34 -33.33387 -60.27094 31938 ft 422 kts 304°
2026-04-30 19:35 -33.28306 -60.35654 31932 ft 422 kts 304°
2026-04-30 19:35 -33.24907 -60.41372 31932 ft 422 kts 304°
2026-04-30 19:36 -33.21497 -60.47096 31935 ft 422 kts 304°
2026-04-30 19:36 -33.16381 -60.55672 31929 ft 423 kts 304°
2026-04-30 19:37 -33.12960 -60.61394 31928 ft 423 kts 304°
2026-04-30 19:37 -33.09562 -60.67069 31924 ft 423 kts 304°
2026-04-30 19:38 -33.06137 -60.72780 31908 ft 423 kts 304°
2026-04-30 19:38 -33.02709 -60.78488 31937 ft 423 kts 304°
2026-04-30 19:39 -32.99277 -60.84194 31939 ft 423 kts 305°
2026-04-30 19:39 -32.95849 -60.89885 31936 ft 423 kts 305°
2026-04-30 19:40 -32.92410 -60.95584 31917 ft 423 kts 305°
2026-04-30 19:40 -32.88991 -61.01243 31915 ft 423 kts 305°
2026-04-30 19:41 -32.85542 -61.06940 31918 ft 424 kts 305°
2026-04-30 19:41 -32.82083 -61.12649 31910 ft 425 kts 305°
2026-04-30 19:42 -32.78622 -61.18350 31913 ft 425 kts 305°
2026-04-30 19:42 -32.75175 -61.24018 31905 ft 425 kts 305°
2026-04-30 19:43 -32.71719 -61.29694 31905 ft 424 kts 305°
2026-04-30 19:44 -32.66532 -61.38197 31906 ft 425 kts 305°
2026-04-30 19:44 -32.63063 -61.43873 31904 ft 425 kts 305°
2026-04-30 19:45 -32.59590 -61.49546 31897 ft 425 kts 305°
2026-04-30 19:45 -32.56113 -61.55217 31888 ft 425 kts 306°
2026-04-30 19:46 -32.52642 -61.60871 31893 ft 424 kts 306°
2026-04-30 19:46 -32.49170 -61.66518 31895 ft 424 kts 306°
2026-04-30 19:47 -32.45697 -61.72158 31894 ft 424 kts 306°
2026-04-30 19:47 -32.42216 -61.77802 31891 ft 424 kts 306°
2026-04-30 19:48 -32.38730 -61.83446 31877 ft 424 kts 306°
2026-04-30 19:48 -32.35255 -61.89062 31890 ft 423 kts 306°
2026-04-30 19:49 -32.32169 -61.94936 31890 ft 424 kts 301°
2026-04-30 19:49 -32.27620 -62.03942 31888 ft 425 kts 301°
2026-04-30 19:50 -32.24569 -62.09919 31887 ft 425 kts 301°
2026-04-30 19:50 -32.21518 -62.15885 31883 ft 423 kts 301°
2026-04-30 19:51 -32.18493 -62.21789 31886 ft 422 kts 301°
2026-04-30 19:51 -32.15442 -62.27735 31888 ft 423 kts 301°
2026-04-30 19:52 -32.12392 -62.33670 31887 ft 423 kts 301°
2026-04-30 19:52 -32.09336 -62.39607 31887 ft 423 kts 301°
2026-04-30 19:53 -32.06292 -62.45511 31877 ft 423 kts 301°
2026-04-30 19:53 -32.03238 -62.51426 31887 ft 421 kts 301°
2026-04-30 19:54 -32.00188 -62.57325 31890 ft 422 kts 301°
2026-04-30 19:54 -31.97123 -62.63242 31889 ft 423 kts 301°
2026-04-30 19:55 -31.94054 -62.69157 31889 ft 423 kts 301°
2026-04-30 19:55 -31.91029 -62.74979 31072 ft 416 kts 302°
2026-04-30 19:56 -31.89525 -62.77871 30509 ft 411 kts 302°
2026-04-30 19:56 -31.88045 -62.80713 29986 ft 405 kts 302°
2026-04-30 19:56 -31.86574 -62.83536 29280 ft 408 kts 302°
2026-04-30 19:56 -31.85072 -62.86416 28148 ft 417 kts 302°
2026-04-30 19:57 -31.83541 -62.89351 27065 ft 424 kts 302°
2026-04-30 19:57 -31.81992 -62.92319 25971 ft 429 kts 302°
2026-04-30 19:57 -31.80424 -62.95320 24827 ft 433 kts 303°
2026-04-30 19:57 -31.78829 -62.98368 23625 ft 441 kts 303°
2026-04-30 19:58 -31.77224 -63.01435 22772 ft 438 kts 303°
2026-04-30 19:58 -31.75636 -63.04469 22058 ft 431 kts 303°
2026-04-30 19:58 -31.74096 -63.07407 21334 ft 425 kts 303°
2026-04-30 19:58 -31.72549 -63.10356 20582 ft 421 kts 303°
2026-04-30 19:59 -31.71022 -63.13267 19917 ft 416 kts 303°
2026-04-30 19:59 -31.69506 -63.16152 19201 ft 413 kts 303°
2026-04-30 19:59 -31.66572 -63.21916 17784 ft 409 kts 299°
2026-04-30 20:00 -31.65235 -63.24847 17085 ft 405 kts 300°
2026-04-30 20:00 -31.63922 -63.27697 16520 ft 398 kts 300°
2026-04-30 20:00 -31.62607 -63.30538 15980 ft 392 kts 300°
2026-04-30 20:00 -31.61315 -63.33326 15451 ft 386 kts 300°
2026-04-30 20:01 -31.58830 -63.38677 13839 ft 365 kts 300°
2026-04-30 20:01 -31.57626 -63.41267 12942 ft 358 kts 301°
2026-04-30 20:01 -31.56445 -63.43804 12095 ft 350 kts 301°
2026-04-30 20:02 -31.54548 -63.47880 11115 ft 329 kts 301°
2026-04-30 20:02 -31.53492 -63.50147 10996 ft 305 kts 301°
2026-04-30 20:03 -31.51593 -63.54219 10712 ft 266 kts 302°
2026-04-30 20:03 -31.50735 -63.56057 10579 ft 249 kts 302°
2026-04-30 20:03 -31.49924 -63.57792 10449 ft 238 kts 303°
2026-04-30 20:03 -31.48836 -63.60122 10307 ft 254 kts 302°
2026-04-30 20:04 -31.48260 -63.61353 10229 ft 257 kts 302°
2026-04-30 20:04 -31.47393 -63.63208 10107 ft 260 kts 302°
2026-04-30 20:04 -31.46522 -63.65070 9963 ft 260 kts 302°
2026-04-30 20:05 -31.44780 -63.68790 9391 ft 261 kts 303°
2026-04-30 20:05 -31.43915 -63.70658 9093 ft 260 kts 300°
2026-04-30 20:05 -31.43484 -63.74900 8529 ft 265 kts 276°
2026-04-30 20:06 -31.43472 -63.77034 8362 ft 258 kts 276°
2026-04-30 20:06 -31.43468 -63.79120 8146 ft 254 kts 276°
2026-04-30 20:06 -31.43468 -63.81199 7893 ft 258 kts 276°
2026-04-30 20:06 -31.43470 -63.83320 7617 ft 263 kts 275°
2026-04-30 20:07 -31.43472 -63.85472 7319 ft 265 kts 275°
2026-04-30 20:07 -31.43476 -63.87638 7011 ft 266 kts 275°
2026-04-30 20:07 -31.43482 -63.91942 6407 ft 265 kts 275°
2026-04-30 20:08 -31.43484 -63.92668 6312 ft 265 kts 275°